Kayseri, Turkey

9:37 PM +03 on March 25, 2017 (GMT +0300)
Erkilet Air Base

Weather History for LTAU - April, 2013

Change the Weather History Date:

Wednesday, April 3, 2013

  Actual Average Record
Temperature  
Mean Temperature 54 °F -  
Max Temperature 72 °F 61 °F 72 °F (2013)
Min Temperature 35 °F 37 °F 28 °F (2011)
Degree Days  
Heating Degree Days 12    
Growing Degree Days 4 (Base 50)    
Moisture  
Dew Point 37 °F    
Average Humidity 56    
Maximum Humidity 87    
Minimum Humidity 15    
Precipitation  
Precipitation 0.00 in - - ()
Sea Level Pressure  
Sea Level Pressure 29.91 in    
Wind  
Wind Speed 4 mph ()    
Max Wind Speed 14 mph    
Max Gust Speed 17 mph    
Visibility 6.0 miles    
Events      
Averages and records for this station are not official NWS values.
T = Trace of Precipitation, MM = Missing Value Source: Averaged Metar Reports

Daily Weather History Graph

Daily Weather History Graph

Search for Another Location

Airport or City:

Trip Planner

Search our weather history database for the weather conditions in past years. The results will help you decide how hot, cold, wet, or windy it might be!

Date:

Astronomy

Apr. 03, 2013 Rise Set
Actual Time 6:20 AM EEST 7:03 PM EEST
Civil Twilight 5:53 AM EEST 7:30 PM EEST
Nautical Twilight 5:21 AM EEST 8:02 PM EEST
Astronomical Twilight 4:48 AM EEST 8:35 PM EEST
Moon 1:39 AM EEST (4/3) 11:56 AM EEST (4/3)
Length of Visible Light 13h 37m
Length of Day
12h 43m
Waning Gibbous, 48% of the Moon is Illuminated
Apr 3
Waning Gibbous
Apr 10
New
Apr 18
First Quarter
Apr 25
Full
May 2
Last Quarter

Hourly Weather History & Observations

Time (EEST) Temp. Windchill Dew Point Humidity Pressure Visibility Wind Dir Wind Speed Gust Speed Precip Events Conditions
12:20 AM 42.8 °F - 35.6 °F 76% 29.98 in - NNE 2.3 mph - N/A   Clear
12:50 AM 41.0 °F 39.0 °F 33.8 °F 76% 29.98 in - NNE 3.5 mph - N/A   Clear
1:20 AM 42.8 °F 39.3 °F 35.6 °F 76% 29.98 in - North 5.8 mph - N/A   Clear
1:50 AM 41.0 °F 38.0 °F 33.8 °F 76% 29.98 in - NNE 4.6 mph - N/A   Clear
2:20 AM 41.0 °F 39.0 °F 33.8 °F 76% 29.98 in - North 3.5 mph - N/A   Clear
3:00 AM 38 °F - 33 °F 74%  in 12 mi NNE 4.6 mph - -  
3:20 AM 37.4 °F 33.8 °F 32.0 °F 81% 29.98 in - NE 4.6 mph - N/A   Clear
3:50 AM 37.4 °F - 33.8 °F 87% 29.98 in - NE 2.3 mph - N/A   Clear
4:20 AM 35.6 °F 32.8 °F 32.0 °F 87% 29.98 in - NNE 3.5 mph - N/A   Clear
4:50 AM 37.4 °F - 32.0 °F 81% 29.98 in - NNE 2.3 mph - N/A   Clear
5:20 AM 37.4 °F - 33.8 °F 87% 29.98 in - NE 2.3 mph - N/A   Clear
5:50 AM 37.4 °F 34.9 °F 33.8 °F 87% 29.98 in - NE 3.5 mph - N/A   Clear
6:20 AM 37.4 °F 32.1 °F 33.8 °F 87% 29.98 in - North 6.9 mph - N/A   Clear
6:50 AM 39.2 °F 33.0 °F 33.8 °F 81% 29.98 in - NNE 9.2 mph - N/A   Clear
7:20 AM 41.0 °F 36.4 °F 35.6 °F 81% 29.98 in - NE 6.9 mph - N/A   Clear
7:50 AM 42.8 °F - 35.6 °F 76% 29.98 in - Variable 2.3 mph - N/A   Clear
8:20 AM 46.4 °F 44.3 °F 37.4 °F 71% 29.98 in - North 4.6 mph - N/A   Clear
8:50 AM 51.8 °F - 39.2 °F 62% 29.98 in - NNE 3.5 mph - N/A   Clear
9:00 AM 51 °F - 40 °F 55%  in 12 mi NNE 3.5 mph - -   Clear
9:20 AM 55.4 °F - 41.0 °F 58% 29.95 in - Variable 2.3 mph - N/A   Clear
9:50 AM 57.2 °F - 41.0 °F 55% 29.95 in - ENE 3.5 mph - N/A   Clear
10:20 AM 59.0 °F - 41.0 °F 51% 29.95 in - Variable 1.2 mph - N/A   Clear
10:50 AM 60.8 °F - 39.2 °F 45% 29.92 in - Variable 2.3 mph - N/A   Clear
11:20 AM 62.6 °F - 41.0 °F 45% 29.89 in - NNE 4.6 mph - N/A   Clear
11:50 AM 68.0 °F - 39.2 °F 35% 29.89 in - NNW 4.6 mph - N/A   Clear
12:20 PM 68.0 °F - 39.2 °F 35% 29.86 in 5.6 mi Variable 5.8 mph 17.3 mph N/A   Mostly Cloudy
12:50 PM 68.0 °F - 41.0 °F 37% 29.86 in 5.6 mi WSW 11.5 mph - N/A   Mostly Cloudy
1:20 PM 68.0 °F - 35.6 °F 30% 29.86 in 5.6 mi West 12.7 mph - N/A   Mostly Cloudy
1:50 PM 69.8 °F - 33.8 °F 27% 29.86 in 5.6 mi West 6.9 mph - N/A   Mostly Cloudy
2:20 PM 69.8 °F - 33.8 °F 27% 29.86 in 5.6 mi West 6.9 mph - N/A   Mostly Cloudy
2:50 PM 71.6 °F - 32.0 °F 23% 29.86 in 6.2 mi Variable 2.3 mph - N/A   Overcast
3:00 PM 72 °F - 34 °F 15%  in 6 mi West 2.3 mph - -   Widespread Dust
3:20 PM 71.6 °F - 33.8 °F 25% 29.86 in 6.2 mi West 9.2 mph - N/A   Overcast
3:50 PM 69.8 °F - 33.8 °F 27% 29.86 in 6.2 mi West 13.8 mph - N/A   Overcast
4:20 PM 68.0 °F - 35.6 °F 30% 29.86 in 3.7 mi West 12.7 mph - N/A   Overcast
4:50 PM 68.0 °F - 37.4 °F 33% 29.86 in 4.3 mi West 12.7 mph - N/A   Overcast
5:20 PM 68.0 °F - 35.6 °F 30% 29.86 in 5.0 mi West 11.5 mph - N/A   Overcast
5:50 PM 66.2 °F - 35.6 °F 32% 29.86 in 5.6 mi West 5.8 mph - N/A   Mostly Cloudy
6:20 PM 64.4 °F - 35.6 °F 34% 29.86 in 6.2 mi West 4.6 mph - N/A   Mostly Cloudy
6:50 PM 62.6 °F - 35.6 °F 37% 29.86 in 5.6 mi Calm Calm - N/A   Mostly Cloudy
7:20 PM 60.8 °F - 39.2 °F 45% 29.86 in 5.6 mi Calm Calm - N/A   Mostly Cloudy
7:50 PM 59.0 °F - 39.2 °F 48% 29.86 in 5.0 mi Calm Calm - N/A   Mostly Cloudy
8:20 PM 55.4 °F - 39.2 °F 54% 29.86 in 5.0 mi SW 2.3 mph - N/A   Mostly Cloudy
8:50 PM 55.4 °F - 39.2 °F 54% 29.86 in 5.0 mi SSW 2.3 mph - N/A   Mostly Cloudy
9:00 PM 55 °F - 40 °F 46%  in 5 mi SSW 2.3 mph - -   Widespread Dust
9:20 PM 55.4 °F - 41.0 °F 58% 29.86 in 5.6 mi Variable 2.3 mph - N/A   Mostly Cloudy
9:50 PM 53.6 °F - 42.8 °F 67% 29.86 in 5.0 mi Calm Calm - N/A   Mostly Cloudy
10:20 PM 53.6 °F - 42.8 °F 67% 29.86 in 5.6 mi NNE 5.8 mph - N/A   Mostly Cloudy
10:50 PM 51.8 °F - 42.8 °F 71% 29.83 in 5.6 mi North 6.9 mph - N/A   Mostly Cloudy
11:20 PM 51.8 °F - 42.8 °F 71% 29.83 in 6.2 mi North 5.8 mph - N/A   Mostly Cloudy
11:50 PM 53.6 °F - 39.2 °F 58% 29.80 in 6.2 mi East 5.8 mph - N/A   Mostly Cloudy